Theta_e
304 305 309 316 322 322 324 327 325 328 328 322 324 326 324 326 326 327 326 325 325 325 323 322 323 321 322 324 327 331 334 338 337 332 332 339 339 338 341 340 340 341 343 343 344 343 338 337 332 328 327 327 327 324 321 322 328 332 335 337 338 339 340 339 340 340 339 340 338 336 335 333 332 331 327 327 329 332 334 335 336 336 337 338 339 339 338 338 336 336 334 330 325 321 320 319 319
303 306 312 318 323 324 326 328 324 323 322 320 325 327 326 328 326 326 323 322 323 322 321 321 322 321 321 322 326 331 336 337 337 336 338 340 340 341 341 340 341 341 343 343 344 343 339 339 336 332 329 328 329 327 324 321 322 323 327 333 336 338 339 339 339 339 339 339 338 337 335 332 329 328 326 327 332 336 336 336 336 335 336 337 338 338 338 337 336 334 330 325 321 320 320 320 320
304 311 316 320 324 325 326 325 322 320 318 318 325 327 324 326 324 321 320 319 319 319 321 322 322 322 323 329 330 334 339 337 336 337 338 341 341 341 341 340 341 341 343 342 343 343 341 340 338 337 334 331 330 328 327 324 322 318 318 325 332 336 337 338 339 338 337 338 337 335 335 330 326 324 324 326 331 336 336 335 335 336 336 336 337 337 337 336 335 331 324 321 320 321 322 322 321
309 318 320 322 324 325 326 323 322 319 317 317 323 326 321 320 319 317 317 317 318 319 321 322 323 323 330 338 335 337 341 338 338 338 337 341 340 340 341 340 341 341 342 343 343 341 340 340 338 338 338 337 333 330 328 326 324 320 316 319 326 332 335 336 337 337 337 336 334 332 330 326 323 322 323 325 328 334 335 335 335 336 336 335 335 336 336 336 334 328 321 320 321 322 323 323 322
315 321 321 324 324 324 326 325 324 321 319 322 325 324 318 316 316 315 315 316 317 319 320 321 324 323 331 339 338 341 340 338 340 339 339 340 340 340 340 339 340 341 342 342 342 340 339 340 338 338 339 340 338 333 329 327 324 322 320 321 323 327 332 334 334 336 336 335 332 327 324 325 327 324 322 323 324 330 333 335 335 335 336 333 333 333 334 334 330 323 321 321 322 324 324 324 323
320 322 322 324 323 324 324 321 321 323 322 324 325 321 315 314 313 313 315 318 318 319 318 318 320 321 329 336 337 338 336 337 339 339 339 339 339 340 340 339 340 340 341 341 341 340 338 339 339 339 339 340 340 336 331 328 328 328 328 327 325 325 330 333 332 335 334 334 331 323 325 330 333 329 324 325 326 328 329 332 332 332 335 333 332 333 333 332 328 325 323 323 325 327 327 326 324
321 322 322 322 321 324 323 319 321 326 320 316 317 315 313 311 311 313 315 319 319 319 318 317 318 321 327 329 334 336 333 333 334 337 339 339 340 340 340 339 340 340 341 341 340 339 338 339 338 339 339 339 340 338 334 331 333 334 332 330 328 326 330 332 331 334 333 332 332 326 330 334 334 332 328 329 332 331 330 331 331 330 334 334 334 334 332 330 327 325 323 325 328 329 330 330 328
320 322 322 320 320 324 323 322 325 325 318 312 311 310 310 309 310 313 315 318 317 317 317 315 317 324 326 325 332 334 329 327 328 332 336 339 340 340 340 339 340 340 340 340 339 339 338 338 337 338 339 339 340 339 336 335 335 334 333 331 331 328 330 334 331 333 333 331 333 332 332 334 335 333 330 333 334 333 333 333 334 334 335 335 335 334 331 327 324 323 323 325 327 327 328 329 330
319 320 320 320 319 321 322 324 325 323 317 312 310 308 308 307 309 312 313 316 315 316 315 313 317 323 326 330 334 327 322 321 324 331 334 337 340 340 340 339 339 339 340 340 339 339 337 337 337 337 338 338 338 337 336 336 335 333 332 331 332 329 329 333 332 332 333 331 333 334 334 334 336 335 331 334 335 335 335 335 337 336 336 336 335 334 331 328 325 325 326 327 327 326 326 327 329
319 318 319 319 316 317 319 323 325 320 314 311 309 307 306 306 309 311 312 314 313 315 312 312 316 319 323 332 335 322 315 319 325 331 332 335 340 340 339 339 339 339 340 340 339 339 337 338 338 338 338 338 336 336 336 336 335 333 331 331 332 329 328 331 332 332 333 333 333 333 335 334 336 337 334 335 336 336 336 336 337 336 336 336 333 331 330 327 326 325 325 326 327 326 326 327 327
318 317 318 316 313 315 315 321 325 318 311 310 308 306 305 306 308 309 311 312 312 314 311 311 314 315 319 326 330 319 314 322 324 327 330 334 339 340 339 339 339 339 340 339 339 338 337 337 338 338 338 338 337 336 336 335 334 333 331 332 331 329 329 328 330 333 333 333 334 333 335 335 336 337 337 336 336 336 336 336 336 336 336 334 331 329 328 326 324 325 325 326 327 326 328 329 328
317 316 315 315 315 317 317 322 323 318 312 309 308 305 304 306 308 308 309 311 311 312 310 310 310 314 315 315 320 315 317 324 322 325 331 335 338 340 339 339 339 339 340 339 339 339 338 337 337 338 337 335 335 335 335 333 333 333 331 332 331 329 331 328 326 332 333 333 334 333 334 336 336 337 337 337 336 337 336 336 336 335 335 332 329 327 326 325 325 324 324 327 329 328 329 329 329
317 317 314 316 317 318 319 320 319 318 313 307 305 304 304 306 306 306 308 310 310 310 309 308 309 315 314 310 314 316 320 322 320 327 331 335 339 339 339 339 339 339 339 338 338 338 338 338 337 337 335 334 333 334 334 334 333 333 331 331 331 329 331 331 327 327 331 334 334 334 335 336 337 337 337 337 337 337 336 336 335 335 334 329 326 326 325 325 325 322 321 324 327 330 329 328 329
314 316 315 315 315 315 315 316 317 318 312 305 304 303 304 305 305 306 307 310 309 307 308 308 309 314 312 310 314 317 320 318 319 327 332 336 339 339 339 338 339 339 339 337 336 338 338 338 337 337 335 334 333 334 334 334 333 333 331 331 331 329 329 333 330 325 328 334 335 335 336 336 337 337 337 337 337 336 336 335 334 335 333 327 326 327 326 325 324 322 320 319 323 328 328 327 328
312 314 315 316 314 312 310 311 314 316 310 304 304 303 304 305 305 306 306 308 309 307 309 309 308 311 311 313 317 316 316 315 317 325 331 335 337 338 338 338 338 338 338 338 337 336 337 337 337 337 336 335 333 333 332 332 332 332 332 331 331 329 328 332 332 327 327 334 335 335 337 336 337 338 337 337 337 335 334 335 334 334 331 327 327 328 327 326 324 323 320 317 323 328 327 326 326
311 313 315 315 312 312 309 308 311 314 308 303 303 303 306 306 306 306 305 307 309 308 309 309 308 311 312 314 315 313 313 313 316 323 329 331 333 335 335 337 338 338 339 338 337 336 336 336 336 336 336 335 333 333 331 330 331 331 331 332 330 328 328 331 331 327 327 334 336 335 336 336 336 336 337 336 336 335 335 335 334 332 329 328 328 328 327 326 324 323 321 317 322 327 326 326 325
309 311 313 312 310 310 307 306 308 309 305 303 303 304 307 307 306 306 306 307 310 310 309 308 309 311 312 312 312 310 311 312 314 320 324 322 326 331 331 332 334 336 338 337 337 336 337 336 335 336 336 335 333 333 330 328 329 331 332 332 331 328 328 330 329 326 329 334 335 335 336 336 336 335 336 336 335 335 334 333 332 330 328 328 328 328 327 326 325 324 323 319 321 326 326 325 325
308 310 310 309 308 306 304 304 304 304 303 303 303 304 306 306 305 305 307 308 309 310 309 309 309 310 310 310 309 308 309 311 311 313 315 314 318 324 324 326 327 329 333 335 337 336 336 336 334 334 335 334 333 332 330 327 328 330 332 331 330 328 327 328 328 327 332 335 334 335 335 335 336 335 335 336 335 333 330 329 329 329 329 329 328 328 328 326 326 325 324 321 321 324 324 325 326
307 308 308 307 305 303 302 301 301 302 302 302 302 303 304 303 303 304 307 308 307 309 308 307 308 308 308 309 308 306 307 309 309 309 310 310 312 316 319 320 321 322 325 328 332 334 335 335 334 333 334 334 331 331 331 330 329 330 331 330 328 327 326 327 329 330 332 335 335 335 335 335 336 336 336 335 333 331 328 327 329 330 329 329 328 328 327 326 326 325 325 324 322 322 324 326 327
305 306 306 304 302 302 302 301 301 300 301 302 303 302 303 302 302 303 306 307 305 305 304 305 307 306 305 306 306 305 306 307 307 308 308 308 308 311 314 316 317 317 318 321 325 330 333 334 334 333 333 333 331 332 333 331 332 332 331 331 329 327 327 328 330 330 332 335 335 335 335 334 335 335 335 333 332 331 329 328 330 330 329 329 328 329 329 328 326 326 326 325 325 324 325 326 325
304 304 304 302 303 303 302 302 301 300 300 303 303 303 303 301 301 301 304 307 305 302 302 303 305 304 303 304 304 303 304 305 306 306 306 306 306 307 309 311 313 313 315 319 322 326 329 331 332 333 334 333 333 333 333 332 331 332 332 331 330 329 329 330 331 330 332 335 334 335 335 334 334 334 334 332 332 333 332 330 331 331 331 331 329 330 332 330 328 327 327 326 326 327 326 325 325
303 302 303 302 303 304 302 302 302 302 302 303 304 303 303 302 301 301 301 304 302 300 301 302 303 303 302 302 303 303 303 303 304 304 304 304 305 305 306 307 309 310 313 316 318 322 325 327 328 332 335 335 335 334 333 332 331 331 332 332 331 331 331 331 332 331 331 332 333 334 334 334 334 334 334 333 333 333 332 332 332 332 333 333 331 330 331 330 329 328 327 327 326 327 326 325 324
303 302 302 302 303 303 302 302 301 302 303 303 304 303 302 302 301 300 300 300 300 300 301 301 303 302 302 302 302 302 301 301 302 303 303 303 303 304 304 305 306 307 309 311 314 317 322 325 327 330 334 335 335 335 334 332 331 331 331 332 331 331 332 332 332 332 332 331 332 333 334 334 333 334 333 333 333 332 332 332 332 332 332 332 331 330 330 329 328 327 326 326 325 325 325 325 325
304 303 302 302 302 302 301 301 301 302 303 302 303 303 302 302 302 301 300 299 299 300 301 301 302 302 301 301 301 301 300 300 300 301 302 302 302 302 302 303 304 305 306 309 311 313 317 323 325 328 331 334 335 335 335 333 333 332 330 331 331 331 331 331 332 332 333 332 332 333 333 334 333 334 334 334 333 332 332 331 331 331 329 329 329 329 329 328 327 326 325 324 324 324 324 324 324
303 302 302 302 302 302 302 301 301 302 302 302 303 303 302 301 301 301 299 299 298 299 300 301 301 301 300 299 299 299 299 298 298 299 300 301 301 300 301 301 302 303 304 306 308 310 314 319 322 326 329 331 334 335 335 335 335 333 332 331 330 330 331 331 331 331 332 332 332 333 333 333 333 333 333 333 333 332 332 330 330 330 329 327 327 329 328 327 326 326 325 324 324 324 324 323 323
302 302 302 303 303 303 302 302 301 301 302 303 303 302 302 301 301 301 299 298 298 299 300 300 301 300 299 298 298 297 297 297 297 297 298 299 300 299 299 299 301 301 302 303 305 308 312 317 319 322 327 329 331 333 335 335 335 335 333 332 331 330 329 330 330 329 330 330 331 331 331 331 331 332 332 332 332 331 330 329 330 329 329 328 328 329 328 326 325 324 325 325 324 324 324 324 324
301 302 302 302 303 303 303 303 302 301 301 302 304 303 302 301 302 302 300 298 298 299 299 299 300 299 298 298 297 296 296 296 296 296 296 297 298 298 298 298 299 300 300 301 302 305 310 316 318 320 324 326 328 331 333 334 334 335 334 333 333 331 330 329 328 328 329 329 329 329 329 329 329 330 331 331 331 331 330 329 330 329 329 328 329 329 328 327 325 324 324 324 324 324 324 324 324
300 301 302 302 303 303 303 303 302 302 302 301 302 304 303 302 302 301 300 299 298 298 299 299 299 298 297 297 297 296 295 294 294 295 295 296 296 297 297 296 297 298 299 300 300 303 308 313 316 319 320 322 327 329 330 332 332 334 334 333 334 332 332 331 329 328 328 329 328 328 328 328 329 330 330 330 331 331 331 331 331 331 330 330 330 330 328 327 326 325 324 324 324 324 324 324 324
300 301 302 302 303 303 302 303 302 303 302 301 301 304 304 302 301 300 299 299 298 298 299 299 298 298 297 296 296 296 295 294 293 293 293 294 295 296 296 295 295 297 298 299 302 303 304 308 313 315 316 317 324 328 329 330 331 331 331 331 332 332 332 331 330 329 329 329 329 329 329 329 329 330 330 330 332 331 330 331 331 330 329 329 329 329 328 327 326 326 325 324 324 324 325 325 325
301 301 303 303 304 304 303 302 303 303 302 301 301 303 304 302 301 300 299 299 298 298 299 298 298 297 296 296 295 295 295 293 293 293 292 293 293 294 295 294 294 295 296 299 306 307 302 303 309 311 312 314 320 324 327 328 327 326 327 327 328 329 330 329 329 328 328 328 329 329 328 328 328 329 329 329 331 331 330 330 329 328 327 327 328 328 328 327 326 326 325 325 325 325 325 325 325
302 301 303 305 306 305 303 302 302 303 302 302 302 304 304 302 301 299 299 299 298 298 298 297 297 296 296 295 294 294 294 293 292 291 292 292 292 293 293 293 293 294 295 296 303 309 304 301 306 308 309 312 315 318 321 323 323 323 325 325 325 326 327 327 326 326 327 327 326 326 326 326 326 327 328 327 327 328 328 328 328 327 326 327 327 327 327 327 326 325 325 325 325 325 325 325 325
303 304 305 305 305 305 304 303 302 302 302 302 302 304 304 302 301 299 299 299 297 297 296 296 296 295 295 295 294 293 293 293 292 291 291 291 292 292 292 292 292 293 294 294 297 305 306 303 304 307 308 309 311 312 314 317 318 319 320 322 323 322 322 322 323 323 323 324 323 323 324 324 324 325 326 325 325 325 325 326 326 325 325 326 326 326 327 326 325 325 325 324 324 324 324 325 325
305 305 306 305 305 305 304 304 302 302 302 302 302 303 303 302 301 299 298 298 298 297 296 295 295 294 294 294 293 293 292 292 291 291 290 290 291 291 291 291 292 292 293 293 294 299 302 302 303 305 306 307 308 309 310 313 314 315 315 316 318 319 319 318 318 319 320 320 320 321 321 321 323 324 324 324 324 324 324 323 324 324 324 325 325 325 325 325 324 324 324 324 324 324 324 323 324
306 305 305 305 304 304 304 304 303 302 302 302 302 303 302 302 300 299 298 298 298 298 297 295 295 294 294 293 293 292 291 291 291 291 290 290 290 290 291 290 291 291 292 292 293 294 298 300 301 304 304 304 306 306 307 309 311 311 311 311 312 314 314 313 314 315 316 317 317 317 317 318 320 321 321 321 322 322 322 322 322 323 324 324 323 323 322 322 322 322 323 323 322 322 322 322 322
306 305 305 305 304 305 305 304 303 303 302 302 302 303 302 301 300 299 298 298 298 298 297 296 295 294 294 293 292 292 291 291 291 290 289 289 289 290 290 290 290 291 291 291 292 293 296 298 300 302 303 303 304 305 305 306 308 308 307 308 308 308 308 309 310 311 311 312 312 313 313 315 317 319 320 319 320 320 320 320 320 321 322 322 321 320 320 320 320 320 321 321 321 321 321 321 321
305 304 304 304 304 305 304 303 303 302 303 302 302 302 302 301 300 299 298 298 297 297 296 296 295 294 293 293 292 292 291 291 290 290 289 289 289 289 289 290 290 290 290 291 292 292 294 296 298 300 301 302 303 304 304 304 304 304 304 304 304 304 303 304 305 305 305 307 308 309 310 311 313 316 317 317 317 318 318 318 318 318 318 319 319 317 316 317 318 319 319 319 320 320 318 318 319
303 304 304 304 305 305 304 303 303 302 303 303 301 301 301 301 301 300 299 298 297 297 296 295 295 294 293 293 293 292 291 291 290 290 289 289 289 289 289 289 290 290 290 290 291 292 292 294 295 297 298 299 301 301 302 301 301 300 300 299 299 298 299 299 299 300 301 302 304 306 308 309 310 311 313 314 314 314 315 315 315 314 313 314 314 313 312 313 314 316 316 316 316 314 312 313 316
303 304 304 305 305 305 304 304 304 302 303 303 301 301 301 301 301 300 299 298 298 297 297 295 294 295 294 293 292 292 291 291 291 290 290 289 289 289 289 289 289 289 290 290 290 291 291 292 293 294 295 296 298 298 298 298 298 298 297 296 295 294 294 294 294 295 296 299 302 303 305 307 309 309 309 310 311 311 311 311 311 310 309 309 309 309 309 310 311 313 312 312 311 308 306 306 310
302 304 304 305 305 304 304 304 303 302 303 304 302 301 302 301 300 300 299 299 297 297 297 296 294 294 294 293 292 292 291 291 291 290 290 289 289 289 289 289 289 289 289 290 290 290 291 291 292 293 294 294 295 296 296 295 295 295 294 294 293 293 292 292 291 291 293 295 297 299 300 302 304 305 305 306 306 307 307 307 307 307 307 307 306 306 307 307 308 309 309 308 307 304 302 302 304
302 303 304 305 304 304 305 304 303 303 303 303 303 302 303 302 300 300 300 299 298 297 296 295 295 294 293 293 292 291 291 291 290 290 290 289 289 289 289 289 289 289 289 289 290 290 290 291 291 292 292 293 293 294 294 294 293 293 292 292 292 292 292 291 290 290 290 291 291 292 293 294 296 298 299 300 301 302 302 303 303 303 303 303 303 303 303 302 303 304 305 305 303 301 300 299 300
302 301 303 303 302 302 303 303 303 304 303 302 302 303 304 303 302 301 300 300 299 298 297 295 295 294 293 293 292 291 291 291 290 290 290 289 289 289 289 289 289 288 288 289 289 289 290 290 290 291 291 292 292 292 293 293 294 293 293 293 292 291 291 291 291 290 290 289 289 289 289 289 290 291 292 294 295 296 297 297 297 297 297 298 298 298 297 297 298 299 300 300 300 299 298 297 297
303 300 299 300 300 300 301 302 303 305 305 302 300 303 305 303 301 301 301 301 299 299 299 297 296 294 293 293 292 291 291 291 290 290 290 290 289 289 289 288 288 288 287 288 288 288 289 289 289 290 290 290 291 291 292 292 293 293 293 293 292 291 291 290 290 290 289 289 288 287 287 287 287 288 288 289 290 290 291 291 291 291 291 292 292 292 292 292 293 294 294 295 295 295 295 295 295
304 300 298 299 300 300 301 303 304 305 304 301 299 302 304 303 302 301 300 301 300 300 299 299 297 295 294 293 292 292 291 291 291 291 290 290 289 289 289 288 288 288 287 287 287 287 288 288 288 289 289 289 290 290 290 291 292 292 292 291 291 291 290 290 289 289 289 288 288 287 287 287 287 287 287 287 287 288 288 288 288 288 288 288 289 288 288 288 289 289 290 290 291 292 293 294 294
304 300 299 301 300 301 303 303 304 304 302 301 299 300 303 304 303 301 300 300 300 300 300 299 298 297 295 293 292 292 291 290 291 291 290 290 289 289 288 288 288 288 287 286 286 286 286 287 287 287 288 288 288 289 289 290 291 291 291 291 290 290 290 289 289 288 288 288 287 287 287 286 286 286 286 286 286 287 287 287 287 287 287 287 288 288 287 287 287 287 287 288 288 289 290 292 293
300 298 299 301 299 301 302 303 305 302 302 303 301 299 302 305 303 300 300 300 299 300 300 299 298 298 296 294 292 292 291 291 290 290 290 290 289 289 288 288 288 287 286 286 286 286 286 286 286 287 287 287 287 288 288 288 289 290 290 290 290 289 289 289 288 288 288 288 287 287 287 286 286 285 285 285 285 286 286 286 286 286 286 286 287 287 287 287 287 287 287 288 289 289 289 290 292
297 295 298 299 298 300 301 303 305 302 302 304 302 299 300 303 303 301 301 301 301 300 299 299 299 298 297 295 294 292 291 291 291 290 290 290 289 289 288 288 288 287 286 286 285 285 286 286 286 286 286 286 287 287 287 287 288 288 289 289 289 289 289 288 288 288 288 287 287 287 286 286 286 285 285 285 285 285 285 285 285 286 286 286 286 287 287 287 287 287 288 288 289 290 290 290 291
296 296 299 301 300 299 299 300 300 302 303 302 301 299 300 302 303 303 302 302 302 301 299 298 298 298 297 296 295 293 291 291 291 291 290 290 289 289 288 288 288 287 286 286 285 285 285 285 285 285 285 286 286 286 287 287 287 287 287 288 289 289 289 289 288 288 288 287 287 287 286 286 286 286 285 285 285 285 285 285 285 285 285 285 286 287 287 287 286 287 287 287 288 288 289 289 289
296 300 301 302 301 300 301 300 298 301 302 302 299 298 298 301 301 302 302 301 300 300 299 297 297 298 298 297 296 294 293 292 292 292 291 290 290 289 289 289 288 288 287 286 286 285 285 285 285 285 285 285 285 285 286 286 286 286 286 287 287 287 288 288 288 288 288 287 287 287 286 286 285 285 285 285 285 285 285 284 284 284 284 284 285 285 286 286 286 286 286 286 287 287 287 288 287
298 300 300 301 301 300 302 301 298 300 301 300 298 296 298 300 300 301 301 301 300 299 298 297 297 297 297 297 296 295 294 293 292 292 292 291 291 290 290 289 289 288 288 287 286 285 285 285 286 285 285 284 285 285 285 285 285 285 286 286 286 286 286 287 288 288 288 287 287 287 286 286 286 285 285 284 284 284 284 284 284 284 284 284 284 284 285 285 285 285 285 285 286 286 286 286 287
297 298 298 301 300 301 302 300 299 301 300 297 295 294 298 300 300 300 300 300 299 298 298 297 297 297 298 298 297 296 295 294 293 293 292 292 291 291 290 289 289 289 288 287 286 285 285 285 285 285 285 284 284 284 284 284 285 285 285 285 285 285 285 286 287 287 287 287 286 286 286 286 285 285 284 284 284 284 284 284 284 284 284 284 284 284 284 285 285 285 284 284 285 286 286 286 286
295 295 297 299 299 300 302 300 300 301 299 296 295 295 298 300 300 299 297 297 297 297 297 297 297 298 298 298 297 297 296 294 294 294 293 292 291 291 290 289 289 289 288 288 287 286 285 285 285 285 285 284 284 284 284 284 284 284 284 284 284 285 285 285 285 285 286 286 286 285 285 285 285 284 283 283 283 283 283 284 284 284 284 284 284 284 284 284 285 285 285 284 284 285 285 286 286
295 294 297 299 297 297 298 297 297 296 296 297 297 297 298 298 298 297 296 297 297 296 296 296 297 297 297 297 296 296 296 295 295 294 293 293 292 291 290 290 289 289 288 288 287 286 285 285 285 285 285 284 284 284 284 284 284 284 284 284 284 284 284 285 285 284 284 285 285 285 285 285 285 284 283 283 283 283 283 283 283 283 283 283 283 283 283 283 284 284 285 284 284 284 285 285 285
296 295 297 296 294 295 297 295 292 292 296 299 297 298 300 299 297 296 296 297 297 297 296 296 297 298 297 297 297 296 296 296 295 295 295 294 292 291 291 290 289 289 288 288 287 287 286 285 285 285 285 285 284 284 284 284 284 284 284 284 284 284 284 284 284 284 284 284 284 284 284 284 284 284 283 283 283 283 283 283 283 283 283 283 283 283 283 283 284 284 284 284 284 284 284 285 285
296 297 296 293 293 293 294 296 295 295 299 300 297 298 300 300 300 298 297 298 298 298 297 297 297 298 297 297 297 297 296 296 296 296 296 295 294 292 291 290 290 289 289 288 288 287 286 286 285 285 285 285 284 284 284 284 284 284 284 284 284 284 284 284 284 284 284 284 284 284 284 284 284 283 283 283 283 283 283 283 283 283 283 283 283 283 283 283 283 284 284 284 284 284 284 284 284
294 295 293 293 296 296 295 297 298 298 300 300 299 298 299 300 300 299 299 299 299 299 298 297 297 297 298 298 298 297 297 296 296 296 296 295 294 293 292 291 290 289 288 288 288 288 287 287 286 286 286 285 285 285 284 284 284 284 284 284 284 284 284 284 284 284 284 284 284 284 284 283 283 283 283 283 283 283 283 283 283 283 283 283 283 283 283 283 283 284 284 284 284 283 284 284 284
293 294 293 292 294 295 296 295 295 297 299 299 300 300 302 302 298 297 298 298 298 299 299 298 298 298 298 298 298 298 297 297 296 296 296 296 295 294 293 292 291 290 289 288 288 288 288 287 287 286 286 286 286 286 285 285 285 285 285 284 284 284 284 284 283 283 283 283 284 284 283 283 283 283 283 283 283 283 283 283 283 283 283 283 283 283 283 283 283 283 283 283 283 283 283 284 284
295 296 296 294 293 293 294 293 291 294 297 296 297 300 304 302 297 296 297 297 297 298 299 299 299 298 298 298 298 298 298 298 297 297 297 297 296 295 294 293 292 290 289 289 288 288 288 288 287 287 287 286 286 286 286 286 286 286 286 286 285 284 284 284 284 284 283 283 283 283 283 283 283 283 283 283 283 283 283 283 283 284 284 284 284 284 284 283 283 283 283 283 283 283 283 283 283
296 297 296 296 295 294 297 297 291 289 292 294 294 298 303 300 295 295 296 296 296 297 297 298 299 298 297 297 297 297 297 297 297 297 297 297 296 295 294 293 292 291 290 289 288 288 288 288 288 288 287 287 287 287 287 287 287 287 287 286 286 285 285 284 284 284 284 283 283 283 283 283 283 283 283 283 283 283 283 283 283 284 284 284 284 284 284 284 283 283 283 283 283 283 283 283 283
Wind_Speed
8 7 6 5 7 8 3 2 2 1 2 2 1 1 3 3 3 4 8 9 2 5 9 9 9 5 6 6 4 5 8 8 7 4 2 6 8 3 6 4 2 14 18 19 17 20 22 21 21 20 19 18 17 16 16 16 16 15 15 14 12 12 12 12 12 11 11 9 9 10 9 10 9 9 10 11 11 10 9 9 10 10 10 11 10 10 10 10 11 11 11 10 10 10 10 10 9
6 5 4 3 6 5 1 1 3 2 3 2 2 2 3 2 3 6 10 10 6 10 12 11 8 5 8 6 4 0 7 9 8 6 3 6 6 3 5 4 2 15 17 18 16 17 19 19 20 20 19 18 17 16 15 14 14 14 14 14 13 12 11 11 11 10 10 9 9 9 9 9 10 9 8 9 11 11 10 10 10 9 9 10 10 9 9 10 11 10 10 9 9 9 8 9 9
5 3 3 0 2 3 1 1 3 2 4 3 3 3 5 3 6 9 10 11 10 12 12 10 4 3 6 3 2 1 6 7 11 10 4 6 5 1 4 3 2 15 15 16 15 16 16 16 18 17 18 18 17 16 15 14 13 13 12 13 13 12 10 10 10 10 9 8 9 9 9 9 9 8 8 9 10 11 11 10 10 10 9 9 9 9 9 10 10 9 9 9 8 8 7 7 7
3 3 2 2 1 1 2 2 2 3 3 2 3 4 6 6 9 10 11 12 9 9 11 11 2 3 5 6 6 2 7 7 12 14 7 9 8 5 2 1 5 15 13 14 14 15 14 15 16 15 16 17 17 17 15 14 12 12 12 12 12 11 11 9 9 9 8 8 8 8 8 8 8 8 8 9 10 11 11 11 11 11 10 8 9 9 9 9 9 8 8 8 7 6 6 6 6
2 4 3 2 2 1 1 1 1 3 1 2 2 4 8 8 10 11 12 11 7 6 10 11 3 4 6 10 8 1 8 9 11 16 11 12 10 4 1 1 7 13 11 13 13 14 13 14 15 14 15 15 16 16 15 14 12 12 11 11 11 11 11 10 9 9 9 8 7 7 8 9 8 8 9 8 9 11 12 12 10 11 10 9 9 9 8 8 8 7 7 7 6 5 4 4 4
2 3 5 2 0 1 1 2 2 2 3 5 2 5 8 9 10 11 13 9 3 4 8 11 6 4 3 7 7 5 8 8 9 16 14 13 9 2 0 2 8 11 11 11 12 13 12 14 14 13 14 14 15 15 15 14 12 10 8 8 8 11 12 10 10 9 9 8 6 6 8 10 9 8 9 9 9 10 12 13 10 11 11 10 10 9 8 8 8 7 7 6 5 4 4 4 3
2 2 3 4 3 1 3 3 2 3 4 5 4 6 8 10 11 10 12 7 2 4 7 11 8 3 3 3 5 8 11 13 11 15 15 11 6 2 1 3 8 10 10 10 11 12 12 14 13 12 11 13 13 13 14 12 10 8 6 6 5 9 13 11 10 11 9 8 7 7 9 10 9 8 9 10 9 10 12 12 11 12 12 11 11 10 10 9 8 7 6 5 4 3 3 3 2
1 1 0 3 3 1 3 3 1 3 4 5 5 6 8 11 10 9 11 8 5 7 9 13 10 2 4 1 2 8 14 18 17 19 19 9 4 3 2 5 8 8 9 10 11 11 12 14 13 11 9 11 12 11 11 11 10 8 7 6 5 7 12 11 10 12 10 9 9 8 9 10 10 10 10 10 9 10 11 11 12 12 12 12 12 11 10 9 7 5 4 2 1 1 1 1 1
2 1 1 3 3 2 2 4 3 4 5 4 6 7 7 10 8 8 10 9 8 8 12 14 10 4 4 4 4 7 14 21 24 23 23 12 4 3 3 6 7 7 8 8 11 11 13 14 12 11 9 8 8 7 8 9 10 9 6 6 7 6 8 12 10 11 11 9 10 9 10 10 10 10 11 10 9 9 9 10 11 12 11 12 12 11 10 8 6 4 2 0 1 2 2 2 3
1 2 1 2 3 5 4 4 3 5 5 3 5 9 8 11 8 7 10 9 10 8 14 13 6 8 6 4 4 6 14 23 29 26 26 16 3 3 2 5 6 8 8 7 10 11 12 15 12 9 8 7 6 6 7 8 9 7 6 7 9 6 7 11 10 10 10 10 10 9 9 10 10 10 11 10 9 9 9 11 11 11 11 12 11 11 10 8 6 4 2 0 1 3 3 4 4
1 2 0 2 4 5 4 4 5 5 5 3 4 10 9 12 8 7 10 9 11 8 15 13 6 10 7 4 3 7 17 26 33 31 28 17 3 2 2 4 5 7 7 7 11 10 11 14 12 10 9 7 6 6 7 7 7 6 6 8 8 6 7 11 11 9 9 9 9 9 9 9 10 9 11 11 10 10 11 11 11 11 10 11 10 9 8 6 5 3 1 1 1 3 3 3 5
2 2 1 2 2 2 2 4 5 4 5 5 6 11 9 11 8 9 12 10 12 9 15 16 9 8 6 6 3 10 23 29 34 33 28 15 2 2 1 3 5 5 7 10 11 9 9 11 11 11 10 9 7 6 7 7 7 7 6 7 7 6 7 11 12 11 10 9 8 9 8 8 9 9 10 12 11 11 13 13 13 12 10 10 9 7 6 4 4 2 1 1 1 3 4 4 5
1 2 2 3 2 1 3 4 4 3 4 7 7 11 10 8 10 10 10 9 12 12 13 17 11 5 6 7 4 13 22 31 36 31 26 12 1 2 1 2 5 5 7 12 12 8 7 9 9 10 10 10 9 8 8 7 8 8 7 8 7 7 8 10 11 12 12 8 8 9 8 8 8 8 10 12 13 12 13 15 14 12 10 9 7 5 4 3 3 2 1 2 3 3 6 6 6
1 1 1 3 2 4 3 1 3 2 3 7 7 12 10 5 10 9 8 9 11 12 10 15 14 4 7 9 4 11 19 33 35 27 25 10 1 1 2 2 3 5 7 11 12 10 8 8 7 9 10 9 9 9 8 8 8 8 8 9 8 8 8 9 10 12 13 9 7 8 8 8 8 8 9 11 12 12 12 13 11 10 8 6 4 4 3 2 2 2 2 0 3 4 7 8 7
2 1 2 4 3 4 3 3 2 1 4 8 9 13 8 4 10 7 8 10 8 10 8 14 16 4 7 11 7 13 22 33 32 24 22 12 4 4 4 3 2 2 4 8 11 11 11 11 9 10 11 9 9 8 8 8 8 7 8 9 9 9 8 9 10 11 12 8 7 8 8 8 8 9 9 10 10 10 11 11 9 8 6 4 3 2 1 1 2 3 4 2 3 5 6 7 7
2 0 2 4 3 3 3 4 1 0 4 8 11 12 7 4 9 7 6 8 5 7 9 12 15 10 9 11 11 19 24 28 27 20 17 18 16 12 9 6 4 2 3 5 6 9 10 11 11 11 11 10 9 8 7 8 9 8 9 9 9 11 10 9 9 11 12 8 7 8 8 7 7 8 8 10 10 10 10 9 8 6 5 4 2 1 1 1 2 3 4 3 2 5 6 6 6
2 1 4 4 4 4 4 5 3 2 4 8 11 12 9 6 9 9 4 7 6 4 10 10 11 14 12 12 15 21 23 24 27 23 20 23 20 15 15 13 10 5 3 3 3 4 8 10 11 11 11 11 9 8 7 8 9 10 10 9 10 10 10 9 10 12 11 7 6 7 8 8 7 8 9 10 11 11 9 8 7 6 5 4 3 2 1 1 2 3 4 3 1 6 6 5 6
2 2 4 5 4 5 4 5 4 4 5 7 9 10 11 9 11 11 5 7 11 4 8 11 9 14 16 16 20 22 23 24 27 27 24 24 19 16 17 16 16 13 8 3 2 2 4 7 10 11 11 11 9 8 7 8 10 10 10 9 9 9 9 9 10 11 9 5 6 7 8 9 8 9 10 12 11 11 9 8 8 7 6 5 4 2 2 2 3 4 4 4 2 5 5 5 6
6 4 5 5 5 5 5 6 5 4 6 6 5 7 12 12 12 10 6 9 15 11 11 15 14 17 20 21 24 24 24 23 25 24 23 22 19 17 16 16 17 16 15 12 6 2 2 4 8 9 11 11 10 8 6 7 8 9 8 7 8 8 10 10 10 10 8 6 6 7 8 9 10 9 11 12 10 10 10 10 9 8 7 5 3 2 3 4 5 6 5 4 4 5 4 5 6
6 5 6 6 4 5 7 6 5 4 5 5 3 4 10 13 12 10 7 5 13 14 13 15 17 19 20 21 24 25 23 22 22 22 20 20 19 17 16 16 17 17 16 15 12 6 3 2 6 8 10 11 10 9 6 6 7 8 8 8 9 10 11 11 9 10 8 7 6 6 7 9 11 11 12 12 10 10 10 10 10 9 7 6 4 3 4 5 6 7 7 6 6 5 5 6 7
6 6 7 6 3 5 9 8 6 4 2 4 4 2 7 10 11 13 10 3 7 12 11 13 14 16 17 19 22 22 21 21 21 22 21 20 20 18 17 15 15 17 16 15 15 11 5 2 2 6 8 10 11 9 7 6 6 7 8 9 10 11 12 10 10 10 9 7 7 6 6 7 9 11 13 13 11 11 12 12 11 9 8 6 5 4 5 5 7 8 7 7 7 7 7 7 8
7 9 8 6 4 6 8 8 8 5 1 3 6 6 5 6 9 15 15 8 6 9 11 12 12 13 14 15 18 19 20 20 20 22 21 20 20 20 19 17 17 20 20 19 18 15 9 5 2 3 7 9 11 9 7 6 6 6 7 8 9 10 11 10 10 10 9 9 8 7 6 6 7 10 13 13 13 13 13 12 11 10 9 7 6 5 6 6 8 8 7 8 8 8 9 9 9
7 9 9 8 7 7 6 7 8 6 6 6 6 5 4 5 9 12 14 11 8 9 11 11 10 11 12 13 15 17 19 20 20 20 19 19 19 20 19 19 20 21 22 22 20 19 13 8 6 3 6 8 9 10 9 8 7 8 7 8 9 9 10 10 9 9 8 9 9 7 7 7 7 10 12 14 15 15 14 14 13 11 9 8 7 6 7 8 9 9 8 9 9 9 9 10 10
11 10 8 9 9 7 5 4 6 7 10 8 5 6 6 7 8 9 12 11 10 10 11 10 9 10 12 13 15 16 17 19 19 18 16 16 17 17 17 17 18 19 22 23 22 21 17 12 9 5 4 6 9 11 11 11 10 10 10 9 9 9 9 10 9 8 7 8 8 7 7 6 7 9 11 13 16 16 17 19 17 13 12 11 9 7 8 9 9 9 9 9 9 9 9 10 11
12 10 7 7 8 8 6 4 5 7 7 5 7 10 8 5 5 10 13 11 11 11 10 10 9 10 11 13 15 16 17 19 19 19 17 16 16 17 17 17 18 19 22 23 23 22 19 15 11 7 3 4 8 10 12 13 12 11 10 9 9 10 10 9 10 9 8 8 8 8 8 7 8 8 10 13 17 16 16 20 19 15 14 12 11 7 8 9 9 9 8 8 8 8 9 10 10
8 9 8 8 9 10 8 7 6 5 5 5 8 11 8 4 1 7 12 11 11 10 9 9 9 10 11 11 14 16 16 19 20 20 19 17 17 19 20 21 21 19 20 22 23 23 20 17 14 11 5 2 4 9 11 11 13 13 11 10 9 9 9 9 10 10 9 9 9 9 9 9 9 9 11 14 16 16 16 19 18 16 14 13 11 8 8 8 9 10 8 8 9 9 10 10 11
6 8 8 8 9 11 10 10 8 3 4 6 6 10 11 6 1 5 10 11 11 10 9 9 8 9 10 10 13 15 16 17 18 18 20 20 19 21 22 24 24 20 20 23 23 23 20 18 16 14 10 6 1 7 9 9 11 13 12 12 11 9 8 8 9 9 9 9 9 10 10 10 10 10 12 14 15 15 15 16 15 15 14 12 11 11 10 9 10 10 10 10 10 11 11 12 12
3 2 4 6 8 13 15 13 11 4 3 7 2 3 9 9 6 7 10 10 10 9 8 9 9 9 10 10 11 13 15 16 17 17 20 21 20 21 21 22 24 22 21 23 22 23 22 19 17 16 15 11 5 3 5 6 8 10 11 12 11 10 9 8 7 8 9 8 9 10 9 10 11 12 13 13 14 13 13 14 15 15 14 13 13 13 11 11 10 11 12 13 14 14 14 15 14
3 1 1 4 6 13 16 13 12 6 6 8 3 4 5 9 9 9 9 9 9 8 8 9 9 9 9 9 9 11 14 15 17 18 18 19 18 19 20 20 22 22 22 22 21 22 24 21 19 17 17 15 10 7 4 5 5 6 8 8 8 11 11 10 9 9 9 8 8 9 10 11 12 13 14 14 15 15 14 14 16 16 14 14 14 12 11 10 10 12 13 13 14 15 15 15 15
3 3 2 2 2 8 12 13 12 8 8 9 2 4 4 8 9 8 8 9 8 7 7 8 7 8 8 8 8 9 13 15 16 18 17 17 17 17 18 19 19 18 20 22 22 21 23 22 19 19 19 17 16 14 10 8 8 8 9 9 10 10 12 11 10 8 7 7 8 10 12 13 12 12 11 11 13 14 14 14 14 13 13 13 12 12 11 9 10 12 13 13 14 14 15 16 16
1 1 2 3 2 4 8 11 14 9 8 11 5 4 3 5 8 7 7 8 7 7 7 8 7 7 7 7 8 8 10 14 15 17 17 17 17 17 18 19 19 18 18 22 22 20 20 22 19 20 19 18 20 20 17 15 14 13 13 12 12 12 11 10 9 7 6 6 6 7 8 10 10 10 11 9 8 8 9 9 8 9 10 10 10 10 11 9 9 11 12 13 14 14 15 15 16
2 1 2 4 3 3 5 7 13 10 7 11 7 4 2 4 6 7 7 8 7 6 6 7 7 7 7 6 7 7 9 12 14 16 18 17 16 16 17 18 19 20 20 21 22 19 19 20 19 20 20 19 21 23 23 21 19 18 17 15 14 13 12 11 9 8 7 6 5 2 2 4 5 7 9 9 7 6 6 5 5 7 9 9 8 8 8 8 8 9 9 10 12 14 15 17 17
5 4 3 4 4 4 3 4 9 10 7 9 8 4 2 4 6 6 6 7 6 5 5 7 7 8 8 7 7 7 8 10 13 16 18 17 16 15 15 18 19 20 20 20 20 18 17 19 19 20 21 18 19 24 25 26 23 22 21 19 17 15 15 14 12 10 9 8 7 5 3 1 1 3 4 4 5 5 6 6 6 9 11 10 7 6 6 6 7 9 9 8 11 14 15 16 16
5 5 2 2 4 4 5 3 5 9 7 7 8 4 3 4 6 6 6 7 7 6 6 7 7 7 6 7 7 7 7 8 12 16 19 18 17 16 15 17 19 19 19 19 18 18 17 19 19 20 21 17 17 22 26 28 27 25 24 24 22 21 19 18 16 14 13 12 11 10 8 6 4 3 3 3 2 3 3 3 3 6 8 7 4 2 3 4 5 8 9 8 8 10 11 12 12
5 6 3 2 3 2 5 6 5 8 7 6 6 3 3 4 4 5 5 6 6 7 8 8 8 7 6 6 7 7 8 8 12 15 17 17 17 17 16 16 18 19 19 19 18 19 20 21 19 20 22 19 18 22 26 28 29 28 27 26 26 26 25 23 22 21 19 17 16 15 13 12 9 6 5 6 5 4 3 2 2 0 2 2 1 1 2 3 4 5 6 7 6 6 7 9 10
3 4 4 4 5 3 4 6 6 7 7 5 5 4 4 4 4 4 4 5 5 6 7 7 7 7 6 6 7 7 8 10 13 14 15 16 17 17 16 17 18 18 20 22 21 21 21 21 21 21 22 21 20 22 24 26 27 27 28 30 30 30 30 29 28 27 26 24 22 20 18 18 16 12 9 8 8 8 7 6 6 6 5 4 4 6 7 7 4 2 3 5 4 4 6 7 8
2 2 3 5 5 4 4 4 6 6 6 5 3 5 5 3 3 3 3 3 3 4 6 7 7 6 5 6 7 7 8 9 11 13 14 15 17 17 16 16 17 17 19 22 22 22 21 20 21 22 22 21 21 21 22 23 23 24 27 30 31 31 32 33 33 32 31 29 28 26 24 22 22 20 17 14 14 14 13 13 12 13 14 13 12 14 14 13 11 8 9 10 9 11 14 14 11
2 3 4 4 4 6 5 5 6 5 5 6 6 7 7 3 2 2 2 3 3 4 5 7 9 8 5 6 7 7 6 7 10 12 13 14 16 16 15 15 16 16 17 19 20 20 21 21 20 20 21 21 21 21 22 23 21 21 23 26 29 30 30 32 33 34 34 33 32 31 30 27 25 25 25 22 21 20 20 20 20 20 20 21 20 20 18 17 16 15 16 17 16 18 23 24 21
1 2 4 3 4 7 5 2 5 5 4 7 9 10 8 4 3 1 2 2 2 4 4 5 8 8 6 6 6 7 7 7 9 11 12 13 14 15 14 14 15 15 16 18 19 19 20 21 20 19 19 20 20 21 23 25 25 25 25 24 25 26 27 29 32 33 34 35 34 34 33 32 30 29 29 28 27 26 26 25 25 25 24 23 24 23 23 23 23 21 20 18 16 18 24 28 28
1 2 3 3 5 6 3 1 6 9 6 7 11 11 7 4 4 3 2 0 1 2 5 5 6 7 7 7 6 6 7 8 8 10 12 12 13 14 14 15 15 16 17 18 19 19 19 20 19 19 19 19 19 18 19 21 23 24 25 25 24 24 23 25 29 31 32 34 34 34 34 33 33 32 31 31 30 30 30 29 28 28 27 26 27 27 28 28 28 26 24 21 19 19 20 24 28
2 1 2 3 5 4 5 5 9 11 5 4 11 9 4 3 5 4 3 3 1 2 4 5 6 6 6 6 6 6 6 7 7 8 10 11 12 13 14 14 15 17 18 18 18 18 17 18 18 18 18 18 18 17 15 15 14 14 16 18 19 21 22 23 25 25 27 29 31 32 32 33 34 34 33 32 32 31 31 31 31 30 30 29 29 30 30 30 29 29 27 25 24 21 19 20 23
1 2 0 4 5 5 7 7 8 8 1 3 8 7 1 3 6 5 3 3 3 3 1 5 5 6 6 4 5 5 5 5 5 6 8 9 11 11 12 14 14 16 17 17 17 17 16 17 18 18 18 18 18 18 16 14 14 14 13 13 14 16 19 21 20 19 19 22 25 28 30 31 32 33 33 33 34 33 33 33 33 33 33 33 33 33 33 32 31 30 29 28 27 24 23 23 21
1 2 1 4 4 4 5 5 5 5 3 3 4 5 4 1 5 4 4 4 4 5 5 6 4 4 5 4 4 4 5 5 5 6 7 8 9 10 11 13 13 14 15 16 18 19 18 18 19 19 19 20 19 18 17 16 15 16 16 16 16 16 17 17 16 16 17 18 21 25 28 29 31 31 32 32 33 34 34 34 35 35 35 34 34 34 34 34 33 32 31 30 29 27 25 23 20
2 3 0 3 4 4 2 2 3 3 5 3 2 1 5 4 1 4 5 5 5 6 6 6 5 4 4 4 4 4 4 5 5 5 7 8 8 9 10 11 11 11 13 16 19 20 20 20 20 20 20 20 20 20 20 18 16 15 16 16 17 17 16 15 15 16 17 18 20 23 26 28 31 32 32 32 33 33 33 34 35 34 34 33 33 32 32 32 33 33 33 33 31 30 27 22 19
2 2 1 3 3 3 2 3 4 2 3 2 3 1 5 4 1 4 5 5 7 8 8 8 7 5 4 4 4 3 3 3 4 5 6 7 7 8 8 9 10 10 12 15 17 19 19 20 21 21 22 21 21 21 22 21 19 17 16 16 16 16 16 15 15 16 17 19 21 21 23 26 29 32 33 33 33 34 33 33 34 33 32 32 32 30 29 29 30 30 30 29 27 26 26 23 19
3 2 3 3 3 2 2 3 3 2 3 1 2 3 4 4 0 4 4 5 8 8 7 7 7 6 6 5 5 4 2 2 3 4 5 5 6 6 7 7 8 9 11 12 14 16 18 19 20 21 22 21 21 21 22 23 23 21 19 18 16 15 14 15 16 17 17 19 21 22 23 24 25 28 30 32 33 33 33 33 33 32 31 30 29 27 26 26 26 25 24 25 23 20 20 21 18
5 4 6 5 4 2 2 2 2 3 2 2 3 2 3 4 1 3 3 4 5 6 7 7 7 8 8 7 6 4 3 2 1 2 3 4 4 4 5 5 6 7 9 10 12 14 16 17 17 19 20 20 20 21 22 23 23 22 21 20 18 16 14 14 15 16 16 18 19 20 21 23 24 25 27 29 31 31 31 31 31 30 29 29 27 24 22 22 22 21 19 20 21 19 17 17 17
4 4 5 4 3 3 2 2 1 2 2 3 3 1 2 4 2 1 3 3 4 6 8 9 10 9 8 7 6 5 5 3 3 2 2 2 3 2 3 4 5 6 7 8 9 11 13 14 14 16 18 18 19 20 21 22 22 22 21 20 20 18 17 15 14 14 14 15 16 16 18 20 23 24 25 26 28 28 28 29 29 29 28 28 27 25 23 21 21 21 20 19 19 19 17 17 17
3 3 4 4 2 1 1 1 1 2 2 3 3 2 2 5 4 3 4 5 6 6 7 8 10 9 8 7 7 6 5 5 4 4 3 3 2 2 2 3 3 4 4 5 7 8 10 11 11 13 15 16 16 17 19 20 20 21 20 20 20 20 19 16 15 14 13 13 14 15 16 17 19 21 23 24 25 26 26 27 27 27 26 26 26 26 25 23 21 21 22 21 19 17 17 16 17
5 4 4 4 4 4 4 3 3 3 2 2 2 1 3 4 3 2 3 3 3 3 3 4 6 7 7 8 7 7 6 6 6 5 6 5 4 3 2 2 2 2 3 3 4 5 7 8 9 10 11 12 13 14 16 17 18 18 19 20 19 19 19 16 15 15 14 14 16 16 16 16 18 19 21 22 23 24 24 25 25 25 25 25 25 25 24 22 19 19 21 22 19 17 15 15 15
3 2 3 3 3 4 4 4 4 5 5 3 1 1 3 3 2 2 0 2 1 1 1 0 2 3 4 5 6 7 8 7 6 7 8 8 7 6 5 4 4 3 2 1 1 2 4 4 6 7 8 9 10 11 13 13 14 15 16 17 17 17 17 16 16 16 16 16 16 16 16 15 16 18 20 20 21 22 22 22 23 23 23 23 24 23 22 21 18 17 18 19 19 16 14 14 14
1 1 2 2 3 3 3 1 2 4 5 4 2 1 3 2 1 2 0 1 1 2 2 3 4 4 3 4 6 7 8 8 7 8 9 11 10 9 8 7 6 5 4 2 2 1 2 2 3 4 5 6 7 8 9 10 11 12 12 13 14 15 16 15 15 16 17 16 16 15 15 15 14 16 18 18 19 20 20 20 20 20 21 21 21 21 21 21 19 16 15 16 17 16 13 12 12
1 1 1 2 2 3 2 0 0 1 3 2 1 4 5 2 1 1 1 3 3 4 4 6 7 6 5 6 7 8 8 8 8 8 10 12 12 12 11 10 9 8 7 5 4 3 3 3 3 3 3 3 4 5 6 7 8 9 9 10 11 12 13 13 14 15 15 15 15 14 14 14 14 14 16 16 16 17 17 17 17 18 18 18 19 19 19 20 18 15 14 14 15 15 13 12 12
2 1 2 2 0 0 1 2 2 2 3 2 1 5 7 4 0 1 3 5 6 7 6 6 7 7 8 9 8 8 8 8 8 10 11 12 12 13 13 14 14 13 11 9 7 6 5 5 4 4 4 3 3 3 4 5 5 6 6 7 8 8 9 10 11 12 12 12 12 11 11 12 12 13 13 13 14 14 14 14 14 15 15 16 17 17 18 19 16 14 13 12 14 15 13 12 12
3 2 3 0 1 0 0 2 3 3 4 4 3 4 5 3 1 1 2 3 5 7 7 7 9 9 9 9 10 10 9 8 8 8 10 11 13 15 15 16 17 17 15 13 11 10 9 8 7 7 6 5 5 4 4 3 3 3 4 4 4 5 6 7 7 8 8 9 9 9 9 10 10 10 10 11 11 11 12 12 12 13 13 14 15 15 16 17 14 13 13 12 14 15 13 12 12
2 2 2 1 1 1 2 2 2 3 4 4 4 4 3 3 1 2 2 0 1 5 7 8 10 11 9 9 9 9 8 8 8 8 10 13 15 17 20 20 20 20 19 17 15 14 12 11 11 10 9 8 7 6 5 5 4 3 3 3 3 3 3 4 4 4 5 5 5 6 7 7 7 7 7 8 9 9 10 10 11 11 11 11 12 12 14 14 12 12 12 12 14 14 12 12 12
1 2 1 0 1 0 1 1 1 2 3 3 4 6 6 1 2 3 4 1 2 1 4 6 7 7 8 8 7 7 7 7 8 8 10 12 14 17 22 24 23 23 22 20 19 18 16 15 14 13 12 11 10 9 8 7 6 5 4 4 4 4 4 4 4 3 4 4 3 4 4 4 4 4 4 5 6 7 8 9 9 9 10 10 11 11 12 12 11 11 11 12 13 12 11 11 12
3 2 1 0 1 1 2 1 1 0 2 2 2 7 9 3 2 3 3 1 1 2 3 4 4 5 6 7 7 7 7 8 7 8 9 11 12 14 18 22 25 25 25 24 23 21 20 19 18 16 15 15 14 12 11 10 9 8 7 6 6 6 5 5 5 4 4 4 3 3 2 1 0 1 3 4 6 7 8 8 9 9 9 10 11 11 12 11 11 12 12 12 12 11 11 11 11
Wind_Direction
333 328 326 341 356 331 313 321 273 153 268 221 76 119 81 16 330 338 4 2 337 353 343 325 311 278 273 307 344 27 34 16 3 341 4 9 342 216 172 5 154 170 168 169 171 175 177 176 175 175 173 172 169 171 172 172 175 172 168 162 155 151 152 151 148 149 147 146 143 146 150 153 155 154 155 151 147 145 142 139 132 131 130 128 124 122 123 121 117 118 116 116 117 112 110 106 96
334 332 328 7 15 329 251 331 271 187 239 203 107 55 31 332 341 7 357 347 332 325 320 315 306 275 266 278 303 69 57 45 26 4 10 356 1 146 198 354 157 171 166 171 170 171 178 179 177 176 177 175 173 174 175 173 175 178 176 171 160 152 156 154 153 152 149 150 150 155 160 168 169 166 165 156 147 143 145 142 137 137 136 132 128 123 120 116 115 120 123 125 121 114 111 104 95
338 353 341 337 28 340 173 260 257 222 232 207 106 60 3 343 2 356 335 328 320 316 321 320 303 308 273 224 305 348 49 41 25 9 10 7 12 29 234 328 180 173 166 172 169 166 175 180 176 177 180 177 179 179 176 174 172 176 177 176 166 156 158 159 158 153 155 160 157 158 164 175 179 178 172 161 150 143 144 144 144 143 140 137 131 127 121 118 120 126 132 131 122 117 111 104 97
356 19 9 253 205 195 217 238 255 250 234 207 109 70 15 358 346 335 324 323 316 318 341 337 321 14 4 39 355 10 23 355 10 3 353 4 351 331 252 313 166 170 168 171 170 166 174 184 179 182 184 176 179 182 176 174 171 171 171 174 175 166 161 166 167 158 165 172 166 168 171 177 181 180 171 166 155 146 146 146 150 148 144 142 134 130 127 126 130 135 136 130 124 120 111 104 98
49 45 51 265 223 152 223 205 262 243 259 344 104 66 18 352 338 329 320 318 315 336 357 353 7 26 42 40 7 18 356 329 350 355 343 347 347 328 247 128 159 170 170 170 171 168 176 186 183 188 189 178 175 180 177 172 170 168 169 172 179 178 166 171 175 167 180 180 174 185 181 170 171 172 164 162 156 154 154 151 153 151 147 145 139 135 129 127 131 135 132 129 126 119 113 111 102
98 77 70 74 120 359 213 202 212 158 30 353 39 42 7 350 339 325 321 319 312 356 8 10 360 332 63 67 51 64 7 348 328 345 344 334 343 347 37 139 163 169 169 171 172 168 178 182 185 193 190 182 170 175 178 173 171 167 176 180 185 189 173 173 178 176 192 188 175 183 172 161 164 168 159 151 149 154 157 157 157 152 147 145 142 133 123 119 122 126 125 122 116 113 111 111 107
157 143 93 111 103 264 222 207 190 115 47 15 32 18 360 349 335 325 337 346 8 11 10 11 345 293 81 104 89 57 20 18 348 349 354 337 353 24 59 140 162 165 170 170 170 171 181 180 187 196 191 188 172 170 176 171 169 166 178 179 185 193 179 175 180 183 194 190 178 173 166 166 172 173 163 155 154 155 158 160 153 150 149 144 135 123 120 119 123 125 121 118 111 109 107 110 115
102 155 108 171 130 213 214 176 105 85 74 56 43 13 354 346 333 333 349 1 6 353 358 2 342 314 53 347 118 42 16 16 2 359 0 352 20 23 88 143 157 159 172 168 171 177 179 179 188 195 192 191 177 172 174 166 167 169 173 171 171 186 180 173 182 192 194 188 186 181 177 180 180 180 175 166 168 165 165 166 153 153 153 143 134 125 126 128 129 126 118 120 124 181 164 146 184
42 27 213 183 139 152 180 154 96 86 95 73 39 16 354 345 334 340 351 5 3 346 1 358 345 356 14 12 88 40 11 6 357 1 4 360 23 30 97 147 157 159 169 169 179 178 174 179 188 192 189 180 173 178 172 164 171 176 178 175 172 181 185 175 181 201 199 191 195 195 191 195 190 186 186 179 179 174 169 167 157 156 150 140 136 129 128 128 125 117 105 97 270 270 256 235 223
37 11 165 146 151 174 175 159 119 100 79 71 36 15 358 349 335 346 352 3 0 355 8 356 1 16 357 19 73 32 4 360 358 358 359 355 9 48 102 149 155 163 164 174 184 174 171 181 187 186 181 174 172 177 164 162 172 176 178 176 176 186 199 184 183 207 211 202 205 208 204 206 202 192 192 190 187 181 169 161 154 152 144 136 134 128 125 124 117 104 93 77 287 290 277 257 241
133 51 272 160 168 179 185 159 123 110 63 64 47 20 359 344 338 354 355 3 360 5 14 3 11 2 350 25 69 20 359 1 358 350 349 349 354 64 96 150 159 163 162 182 188 176 175 182 187 183 174 172 171 168 167 173 183 183 182 184 187 194 203 192 191 210 220 214 210 214 216 211 208 201 195 195 195 186 168 157 151 149 144 138 136 132 128 119 110 100 100 163 277 296 281 261 249
145 127 215 162 155 172 163 134 106 115 72 37 23 12 351 342 357 2 351 0 360 11 22 8 352 330 343 15 26 4 357 360 353 345 347 343 355 94 98 138 161 161 166 186 188 177 178 183 186 188 183 182 183 181 189 194 198 203 199 197 196 200 200 192 199 212 220 221 212 213 223 213 208 206 199 199 201 190 168 159 157 153 149 146 142 137 130 113 105 98 117 180 207 279 277 267 262
64 121 180 111 46 65 86 115 99 129 84 30 5 352 344 354 9 359 343 359 13 16 17 3 340 309 4 355 352 4 355 351 345 348 351 336 31 85 152 131 163 170 180 185 187 178 177 185 184 191 194 196 199 200 205 204 204 209 207 208 203 212 212 194 204 219 223 228 214 211 219 214 209 205 205 199 195 193 176 167 164 154 147 147 143 136 131 114 106 100 117 190 192 239 268 264 264
10 35 70 105 75 73 53 97 105 141 82 24 9 349 344 15 3 353 356 9 31 18 360 6 351 295 2 349 353 6 343 339 342 356 358 335 198 90 129 119 172 186 193 185 185 180 176 183 182 191 195 197 203 205 208 206 207 208 206 210 206 217 223 203 211 223 226 230 213 208 212 212 206 204 207 197 194 195 180 171 161 148 149 153 150 142 141 131 106 81 69 124 186 208 254 259 265
3 44 60 107 106 81 37 35 65 135 68 24 12 350 335 43 2 1 22 10 30 15 359 19 14 350 3 357 348 345 331 333 343 1 8 12 64 101 104 81 113 153 183 183 189 188 187 191 191 195 199 205 210 211 217 214 209 213 214 214 208 215 222 219 229 225 225 228 206 203 211 214 202 202 200 185 191 186 166 160 150 147 165 179 176 160 155 130 78 51 38 36 172 204 246 259 271
356 35 79 95 86 82 37 26 359 192 54 19 12 355 339 45 10 9 21 354 353 19 25 30 29 35 20 7 345 334 331 336 352 14 27 26 41 75 75 60 73 78 126 162 190 190 194 201 204 202 204 213 220 221 231 231 214 211 215 215 213 218 221 227 234 222 225 224 201 203 204 208 201 199 190 168 167 161 152 151 154 166 188 209 225 240 241 78 51 34 20 26 164 212 245 260 272
314 30 74 85 70 70 38 11 7 349 356 8 14 5 360 8 3 2 338 347 358 41 46 38 42 37 20 6 349 340 340 348 8 30 39 20 21 52 49 41 42 32 78 136 168 181 191 198 206 206 208 214 224 227 235 242 223 214 212 211 216 225 227 227 225 220 228 222 205 214 201 196 195 186 176 165 158 155 156 159 172 193 207 230 243 257 294 8 3 2 356 1 200 223 246 263 268
357 53 68 79 65 52 20 352 351 322 319 3 14 10 18 8 348 346 325 5 13 31 36 24 31 23 11 2 353 350 352 359 13 25 30 16 8 29 33 29 26 19 19 33 140 176 193 199 208 210 214 218 225 230 234 239 230 222 217 216 220 225 225 217 218 223 234 226 212 221 207 198 188 180 178 173 168 168 172 176 189 206 215 228 237 258 306 339 335 331 330 339 290 245 253 262 265
35 59 74 72 64 50 11 343 331 314 322 354 18 23 33 20 348 340 343 20 22 18 2 359 2 359 358 357 353 353 356 2 13 17 22 17 9 17 22 19 20 17 15 18 33 92 170 213 215 215 218 219 223 227 230 228 226 228 225 221 216 215 214 211 220 233 238 226 221 222 217 212 195 189 189 182 180 184 185 188 197 210 213 218 231 261 296 315 320 316 309 309 303 280 263 258 263
28 41 81 72 69 62 24 4 348 332 325 349 27 34 37 28 9 358 343 10 34 25 358 350 351 346 345 348 350 351 354 2 12 17 20 18 12 14 17 15 15 11 9 13 25 61 111 196 215 224 223 219 217 212 215 214 216 226 225 217 209 206 209 214 225 238 240 227 232 232 232 234 214 201 197 191 192 195 196 197 205 214 214 216 227 241 268 295 309 309 305 300 297 286 270 266 268
41 37 78 77 80 62 26 19 15 4 334 9 39 36 30 29 24 22 8 4 31 16 358 346 339 337 339 342 347 350 355 3 12 16 17 15 12 13 13 11 12 15 18 20 26 42 61 86 208 224 221 225 220 208 203 207 211 216 220 215 208 205 208 217 225 235 242 239 247 248 250 253 230 214 207 204 201 201 205 203 208 215 214 222 232 234 247 275 296 305 303 290 282 276 273 277 279
74 57 72 77 77 72 38 30 26 17 57 46 51 47 27 31 34 31 30 38 14 350 346 342 336 338 341 344 349 353 357 3 9 12 11 10 9 9 8 7 12 22 30 29 26 30 37 42 39 186 201 219 222 219 209 203 208 209 215 212 209 210 210 214 220 229 237 239 246 249 248 247 244 236 224 220 218 213 212 207 208 212 211 222 233 242 261 281 293 300 294 281 278 278 279 282 282
95 76 71 69 70 78 55 39 29 24 60 54 55 60 36 52 48 35 37 35 6 347 345 342 340 341 345 354 358 1 2 2 5 8 6 3 5 5 3 5 9 17 25 26 24 23 27 34 42 120 188 207 216 224 222 220 211 204 213 211 210 214 216 220 222 227 233 236 242 246 250 243 242 248 237 233 230 222 219 215 213 214 213 220 229 251 283 296 300 300 291 281 280 281 283 287 286
90 92 76 65 63 68 59 45 35 34 56 53 63 68 38 48 50 36 33 22 3 354 352 351 348 349 356 4 7 10 7 3 2 3 4 2 4 4 3 4 5 13 20 23 23 20 21 28 37 67 161 199 213 218 223 230 219 205 208 209 213 216 219 227 228 231 237 241 247 250 258 255 247 251 244 240 237 228 223 222 221 221 223 227 230 254 290 299 303 300 293 287 285 287 292 300 300
75 91 86 71 60 57 61 60 45 37 47 42 60 58 40 56 61 40 29 10 2 355 354 1 0 6 10 9 10 10 9 7 1 359 2 1 2 5 9 10 8 12 15 17 18 17 19 25 31 42 89 177 209 212 219 229 222 211 210 208 211 217 224 233 236 239 245 254 262 264 264 264 263 262 261 256 246 233 223 224 224 224 231 235 233 254 290 295 299 295 290 288 287 292 294 297 300
73 93 88 78 66 53 52 51 44 36 31 17 53 59 43 52 90 47 32 9 359 352 360 8 8 18 17 13 11 8 8 8 3 359 358 358 2 5 7 12 13 12 10 14 16 15 19 27 32 35 49 104 207 208 212 226 227 223 219 215 212 216 222 231 241 244 251 260 266 274 276 276 276 274 281 280 260 240 232 232 228 227 235 234 233 262 287 287 294 290 282 282 282 286 288 289 292
92 101 90 81 74 50 39 40 33 31 45 15 44 66 49 37 18 36 21 6 359 351 5 13 14 22 17 16 13 10 9 7 4 360 359 1 5 4 2 8 11 9 11 15 14 12 20 31 35 39 49 57 128 207 208 223 232 229 223 223 225 227 226 231 242 246 254 262 267 273 276 279 280 274 279 287 276 258 247 242 234 230 232 231 244 274 283 280 289 285 276 276 278 279 282 286 288
90 142 110 77 73 45 28 25 18 360 34 4 329 79 49 40 31 16 359 359 359 350 6 15 19 23 15 17 16 13 11 6 6 5 6 5 3 1 359 2 6 8 12 15 14 13 21 32 39 46 49 49 66 172 203 214 226 228 227 229 228 228 231 232 231 238 248 255 268 275 278 282 284 280 277 280 279 270 257 249 245 244 243 244 256 272 280 283 285 280 276 276 277 278 279 281 281
76 190 160 63 69 45 25 12 5 357 8 1 267 233 35 39 21 5 354 355 353 351 10 14 18 21 14 15 15 17 13 7 9 10 9 4 360 359 360 1 3 5 11 20 27 22 19 24 37 51 49 47 71 97 130 172 188 192 197 201 197 199 200 196 196 211 228 236 256 268 273 277 276 278 279 278 275 270 266 261 256 253 247 247 254 267 280 287 285 282 279 277 278 278 277 279 279
84 40 14 22 68 41 25 7 357 8 9 1 277 251 23 38 9 359 356 353 350 356 13 12 16 17 12 13 13 18 15 12 12 10 7 6 2 359 360 3 4 4 5 18 36 34 19 17 34 52 52 54 75 90 106 126 129 126 133 134 136 154 165 170 178 188 204 220 245 256 258 259 256 257 264 271 273 272 275 273 270 265 257 256 262 273 283 285 283 283 280 279 280 279 281 284 284
102 20 25 16 19 24 29 15 5 18 11 354 309 274 18 23 359 0 353 353 354 357 8 9 11 11 8 10 10 14 16 15 14 10 7 7 6 1 0 2 6 9 5 12 33 44 28 19 32 50 54 58 74 86 95 104 110 111 116 119 119 129 142 152 156 160 181 199 222 243 250 252 250 248 248 251 261 275 282 283 283 281 278 276 273 277 283 282 283 283 283 283 283 286 289 291 290
23 304 50 23 16 19 35 35 19 12 356 356 336 296 3 358 355 1 354 357 352 355 9 5 6 10 8 8 10 9 10 13 14 12 9 7 7 4 4 5 8 12 11 10 24 45 43 29 35 53 58 57 67 81 89 96 100 103 107 114 119 120 122 127 132 141 158 162 163 183 232 260 256 256 257 250 247 261 271 275 273 274 282 284 279 281 283 283 283 282 284 282 284 291 293 294 295
31 25 53 18 1 359 6 56 33 5 344 5 6 353 360 348 357 358 356 358 345 352 11 7 9 9 6 7 10 9 5 9 12 11 9 6 4 3 7 10 11 13 13 12 17 35 45 36 39 56 61 56 63 75 85 92 94 94 97 100 108 113 110 106 107 120 126 124 121 115 108 96 223 250 268 257 240 232 238 254 263 265 272 279 289 299 295 291 288 287 287 281 287 294 296 297 296
18 19 48 33 1 341 350 24 31 3 355 10 10 12 13 349 348 350 359 359 347 354 7 9 9 5 9 7 6 9 7 11 15 10 6 5 2 3 8 12 16 18 16 17 18 29 45 44 43 57 62 58 63 72 80 87 89 90 90 91 95 98 98 95 95 101 103 105 106 101 98 96 114 145 110 98 150 173 197 237 262 263 263 272 286 299 300 297 297 296 293 287 287 293 297 299 300
5 5 6 12 349 339 352 354 1 350 345 3 4 4 7 349 343 350 358 360 359 5 5 4 0 359 9 11 7 8 9 16 16 9 5 4 3 4 8 12 17 20 21 25 22 27 45 51 47 56 63 62 65 74 80 85 86 86 85 86 87 85 86 88 90 90 88 90 93 94 94 93 101 116 110 100 104 111 106 86 66 37 236 246 250 65 6 331 312 305 308 308 296 297 312 314 311
6 351 343 340 333 344 340 337 356 341 321 341 356 339 331 332 345 354 354 358 7 10 3 356 353 353 0 11 10 5 11 15 9 4 4 6 7 7 11 16 18 19 24 31 31 29 38 46 50 55 60 62 67 74 79 81 82 81 82 82 82 80 81 82 83 83 82 83 83 85 87 86 91 96 98 96 94 97 94 90 90 89 96 108 103 75 58 51 37 32 24 354 338 357 6 353 331
319 297 324 331 323 342 341 329 349 339 317 329 334 306 297 303 332 349 351 340 355 9 356 348 345 344 354 6 9 10 13 11 3 4 6 6 8 10 15 19 20 21 25 30 33 32 32 38 46 50 53 56 58 65 73 74 74 76 78 78 78 78 77 77 77 77 77 79 80 81 81 81 83 85 86 88 88 91 94 96 96 93 90 89 90 82 73 71 71 83 82 62 55 53 44 32 16
272 302 316 320 326 333 322 308 333 337 316 328 329 302 287 268 283 332 341 313 341 8 358 349 339 335 353 5 7 11 13 9 8 10 9 9 10 11 17 20 20 22 22 25 29 30 32 36 39 43 49 51 50 58 70 73 72 75 77 78 77 76 74 72 72 72 73 76 77 78 79 79 80 82 82 84 85 86 90 91 89 87 86 83 83 81 76 73 73 82 82 73 64 56 51 44 39
287 322 306 316 343 327 297 277 343 338 306 325 328 308 293 262 235 255 310 316 1 1 5 1 334 327 346 0 7 6 5 10 11 13 12 13 13 14 19 20 19 22 23 26 29 30 32 34 34 39 45 49 52 60 71 77 79 82 82 80 79 77 73 72 72 71 71 73 73 73 74 76 79 81 81 82 83 83 84 85 82 81 80 78 78 75 72 68 67 72 75 72 64 54 52 47 46
54 2 316 318 347 336 310 15 345 321 292 312 317 301 285 253 224 219 235 57 63 360 13 4 332 331 340 348 2 3 4 8 7 11 13 13 16 18 19 19 20 24 26 28 29 30 32 33 34 38 44 48 54 61 69 76 79 80 81 80 80 79 75 73 72 70 70 70 71 71 71 72 74 77 78 79 80 80 80 80 79 77 76 74 73 70 67 64 62 64 66 66 63 52 48 46 47
92 58 342 310 321 310 288 308 322 309 274 316 324 304 263 212 230 234 185 161 163 71 21 333 323 339 332 337 357 1 4 4 3 8 10 13 17 17 19 20 23 28 30 30 30 31 32 36 39 41 47 51 54 58 60 65 69 68 72 73 72 73 71 67 64 61 62 65 67 70 71 71 72 73 75 77 78 78 78 78 77 75 74 72 70 68 66 64 61 62 60 60 61 55 51 49 46
142 145 197 280 289 276 286 307 315 313 294 48 353 321 315 165 221 246 190 193 202 138 171 279 308 336 321 332 355 355 360 360 3 9 9 14 18 19 21 21 24 30 33 36 41 42 41 45 50 51 53 57 60 62 59 59 62 60 59 60 59 61 60 56 54 52 54 59 65 69 71 73 73 73 73 75 76 77 77 77 77 75 73 71 69 69 68 67 64 63 62 62 62 59 58 56 49
308 125 184 257 266 258 291 318 315 325 324 355 3 325 320 250 209 220 206 216 212 179 205 244 263 303 310 334 347 341 350 356 359 6 11 14 16 19 21 22 24 27 34 45 54 57 56 57 60 62 63 64 65 67 66 61 59 60 62 63 61 62 63 58 56 58 60 63 66 69 70 72 73 74 73 74 74 76 76 77 76 74 72 71 70 69 68 68 66 65 65 65 63 60 59 57 52
321 98 182 251 250 250 261 305 297 322 305 288 61 342 290 289 192 178 203 225 230 218 218 225 230 255 288 316 326 329 341 352 352 355 6 10 13 17 18 20 22 28 41 52 59 63 64 65 66 69 70 71 71 73 75 70 63 62 64 66 66 65 68 66 63 64 66 69 69 69 70 71 73 74 74 74 75 75 75 75 75 73 71 70 69 68 66 66 66 65 64 64 62 59 57 54 48
353 73 297 258 249 243 198 248 280 307 302 282 93 14 283 291 90 151 195 233 242 234 222 220 222 230 246 264 282 301 318 337 347 349 359 4 7 11 12 13 17 32 47 55 62 67 67 68 70 72 74 75 78 80 82 81 77 73 70 70 71 68 68 69 70 69 68 70 70 69 69 70 72 73 74 75 76 76 76 75 74 73 71 71 69 68 66 65 64 62 61 60 58 56 54 52 47
340 330 276 226 204 215 203 265 292 270 277 312 55 360 319 312 220 167 198 236 243 232 216 216 217 219 224 229 238 247 267 310 338 344 352 357 2 5 4 9 17 31 48 57 65 71 72 72 73 74 76 76 80 83 86 87 86 84 81 80 79 76 75 75 75 73 69 71 71 70 70 70 70 71 72 74 74 75 75 75 74 73 71 70 68 66 64 63 62 59 58 56 55 53 51 49 47
312 296 269 231 200 204 219 276 288 262 262 112 90 29 327 313 296 172 196 223 233 215 195 201 208 215 219 219 226 226 224 238 270 311 338 347 353 1 360 10 20 26 41 55 65 71 73 73 73 75 78 78 81 84 86 90 91 90 89 89 86 83 81 80 77 74 72 73 72 71 72 73 72 71 71 72 73 73 73 73 73 72 71 69 67 64 61 60 59 57 55 54 53 52 49 47 44
279 268 277 273 228 209 217 216 216 286 342 115 127 21 257 259 300 185 201 207 223 207 189 196 206 211 213 212 216 217 218 225 228 252 285 311 335 354 2 12 19 21 33 46 58 69 72 72 71 74 78 78 81 84 86 90 92 93 94 94 93 92 89 84 80 77 74 73 73 72 73 74 74 74 72 72 72 72 72 72 72 70 69 68 67 66 63 59 58 57 55 53 51 50 48 47 44
300 291 302 311 307 315 313 319 265 299 349 126 133 358 255 241 276 279 220 202 209 206 192 194 201 203 206 208 211 213 216 223 227 235 244 253 277 304 337 353 4 17 24 38 56 68 73 74 72 73 77 78 80 83 86 89 92 94 95 95 96 97 96 91 86 84 80 77 78 78 76 74 74 74 74 73 73 72 71 70 70 69 67 66 65 64 62 59 55 53 54 52 49 47 44 44 43
357 342 331 340 354 356 345 340 319 298 320 132 135 338 280 268 281 259 234 210 200 208 191 185 197 200 204 207 209 211 213 218 225 227 231 237 244 253 273 297 320 343 354 20 56 71 75 78 77 77 78 79 81 83 85 87 89 92 95 97 98 98 97 95 92 92 89 87 87 84 82 79 78 78 78 77 75 73 71 70 68 67 65 63 61 60 58 57 53 49 49 48 46 43 40 40 38
4 328 314 349 18 347 331 340 322 311 314 300 221 195 275 313 21 118 85 355 16 257 248 247 235 213 203 205 205 211 217 218 221 223 226 231 233 235 239 247 261 276 293 331 40 83 89 89 88 89 89 86 85 86 87 88 88 90 93 96 99 100 100 98 98 99 98 96 94 90 88 86 83 82 81 78 75 72 70 67 65 63 61 59 56 55 54 52 50 46 43 42 41 39 35 33 30
104 251 285 347 10 329 314 354 321 311 310 290 260 253 268 284 56 111 198 275 161 205 219 228 238 223 202 213 210 212 219 218 217 220 225 228 227 226 229 233 238 239 243 247 243 196 138 131 115 107 103 98 97 95 95 95 94 94 94 96 99 101 103 103 103 104 103 102 99 97 95 92 89 86 81 76 71 68 65 63 60 58 56 55 52 51 49 48 46 42 37 35 33 31 27 25 23
264 288 357 32 347 310 299 37 130 262 281 278 291 298 290 272 212 181 214 220 196 187 205 215 219 212 209 222 220 215 218 218 217 220 224 226 224 223 226 228 227 226 227 225 223 220 202 184 166 152 138 120 114 109 106 105 103 104 102 101 103 105 107 108 109 108 107 105 103 101 99 96 93 88 80 74 68 63 60 58 56 53 51 50 48 46 44 43 41 36 32 29 25 23 20 17 15
300 339 86 115 200 69 319 299 294 280 280 286 311 301 301 308 343 142 172 207 212 204 205 212 213 213 218 224 224 220 220 221 223 226 228 228 225 225 226 227 228 227 223 220 215 213 210 202 198 191 183 177 163 140 129 123 119 120 115 112 111 112 113 115 115 114 111 108 106 104 101 96 91 83 75 68 62 57 54 52 50 47 45 42 41 39 36 35 34 28 24 20 16 15 11 8 7
357 61 121 158 295 339 347 306 317 320 307 293 292 302 288 263 264 74 158 191 214 206 201 211 219 219 222 226 225 224 222 222 227 229 230 231 229 229 228 228 230 230 227 224 219 216 215 212 208 205 199 197 193 182 170 160 150 142 139 138 130 124 123 124 125 123 118 115 110 106 101 94 86 78 68 58 51 46 41 40 38 35 34 31 29 28 26 27 25 19 16 11 7 7 3 357 355
40 142 152 28 338 317 336 339 301 294 303 306 316 326 290 214 196 292 268 124 198 200 200 216 226 224 224 227 225 223 220 218 222 225 226 228 229 231 232 231 231 232 231 227 224 223 221 219 217 215 212 210 207 203 196 189 186 179 174 178 176 170 161 152 148 144 138 135 126 115 108 97 85 73 60 46 38 31 26 24 23 20 18 15 14 13 13 15 13 10 7 2 359 358 353 347 344
267 222 207 99 135 296 293 221 231 296 294 301 311 304 291 253 131 248 262 27 49 227 226 232 238 238 239 241 239 236 232 226 222 221 225 227 228 231 234 235 235 235 234 232 229 229 227 225 224 222 220 219 217 216 215 211 207 203 201 201 208 211 208 203 199 188 181 176 165 150 136 117 95 69 49 30 19 12 8 8 6 2 360 358 356 355 355 357 356 354 352 351 350 346 338 335 332
295 273 281 336 277 303 296 275 78 54 269 280 310 294 291 315 71 272 281 13 5 299 281 274 271 264 260 257 254 251 250 247 239 231 229 228 229 231 233 235 235 234 234 234 233 232 232 231 229 227 226 225 224 223 223 224 223 221 219 216 218 223 227 228 229 229 223 218 216 213 202 181 67 7 1 355 349 345 344 346 347 343 340 340 340 339 340 340 339 338 337 336 336 332 327 325 323